Miscellaneous Local Product
Issued by NWS North Platte, NE

Home | Current Version | Previous Version | Text Only | Print | Product List | Glossary On
Versions: 1 2 3 4 5 6 7 8 9 10 11 12 13 14 15 16 17 18 19 20 21 22 23 24 25 26 27 28 29 30 31 32 33 34 35 36 37 38 39 40 41 42 43 44 45 46 47 48 49 50
000
AXUS43 KLBF 270010
MISLBF


WESTERN AND NORTH CENTRAL NEBRASKA HOURLY WEATHER ROUNDUP
NATIONAL WEATHER SERVICE NORTH PLATTE NE
700 PM CDT SUN JUL 26 2015

***STATIONS NOT REPORTING VARIABLES SUCH AS SKY/WEATHER OR
PRESSURE ARE PROVIDED BY THE NEBRASKA DEPARTMENT OF
ROADS...RAWS...AND APRS NETWORKS...AND ARE NOT UNDER
NATIONAL WEATHER SERVICE QUALITY CONTROL***

...OBSERVATIONS IN AND NEAR THE EASTERN PANHANDLE OF NEBRASKA...

CITY           SKY/WX    TMP DP  RH WIND       PRES   REMARKS
PINE RIDGE     SUNNY     89  53  29 S18G28    29.86F
CHADRON        SUNNY     89  54  30 S24G37    29.84S
ALLIANCE       PTSUNNY   80  56  43 S24G33    29.92F
SIDNEY         CLOUDY    71  63  75 E16       30.00F
BIG SPRINGS      N/A     70  64  81 N5          N/A
$$

...OBSERVATIONS IN NORTH CENTRAL NEBRASKA...

CITY           SKY/WX    TMP DP  RH WIND       PRES   REMARKS
VALENTINE      CLOUDY    78  67  68 NE17      29.89F
THEDFORD       TSTM      81  65  57 W16G22    29.95R
AINSWORTH      TSTM      81  75  83 NE13      29.88F
O`NEILL        PTSUNNY   85  73  66 E7        29.89S HX  92
ORD            MOSUNNY   87  74  64 SE8       29.86F HX  95
BROKEN BOW     PTSUNNY   88  74  63 SE8       29.88F HX  96
SPRINGVIEW       N/A     83  73  71 E10G18      N/A
CHAMBERS         N/A     85  74  68 E6          N/A  HX  92
EWING            N/A     84  76  77 CALM        N/A  HX  92
$$

...OBSERVATIONS IN SOUTHWEST NEBRASKA AND FAR NORTHEAST COLORADO...

CITY           SKY/WX    TMP DP  RH WIND       PRES   REMARKS
WRAY           TSTM      67  63  87 N10       30.02R
HOLYOKE        TSTM      68  61  77 N3        30.03F
IMPERIAL       CLOUDY    77  57  50 W28G43    29.96R
OGALLALA       CLOUDY    70  63  79 N21G29    29.97R
NORTH PLATTE   CLOUDY    86  73  65 SE5       29.88S HX  93
MCCOOK         PTSUNNY   91  69  48 SE13      29.85F HX  96
LEXINGTON      MOSUNNY   90  73  56 SE12G20   29.86F HX  98
PAXTON           N/A     84  74  72 CALM        N/A  HX  91
BRADY            N/A     87  74  65 CALM        N/A  HX  95
CALLAWAY         N/A     84  77  81 SE6         N/A  HX  94
$$

...NORTH PLATTE AREA...

CITY           SKY/WX    TMP DP  RH WIND       PRES   REMARKS
AIRPORT        CLOUDY    86  73  65 SE5       29.88S HX  93
DOWNTOWN         N/A     89  70  53 CALM        N/A  HX  94
HILLCREST        N/A     87  72  60 SE6         N/A  HX  93
$$

...SOME WEATHER OBSERVATIONS FROM AROUND THE REGION...

CITY           SKY/WX    TMP DP  RH WIND       PRES   REMARKS
DENVER         MOSUNNY   86  51  29 SE16      29.99F
LARAMIE        MOSUNNY   80  31  16 SW5       30.12F
CHEYENNE       SUNNY     81  54  39 S16G26    30.04F
SCOTTSBLUFF    MOSUNNY   82  57  42 SE24G31   29.94S
RAPID CITY     SUNNY     87  66  49 E22G33    29.81F
PIERRE         CLOUDY    85  64  49 SE16      29.82F
WINNER         FAIR      83  69  62 SE10      29.85F
SIOUX FALLS    PTSUNNY   79  68  69 E8        29.89F
OMAHA          MOSUNNY   89  76  65 SE9       29.85S HX 100
GRAND ISLAND   SUNNY     88  78  72 SE9       29.87F HX 101
KANSAS CITY    PTSUNNY   89  77  67 S3        29.87F HX 101
WICHITA        MOSUNNY   93  70  46 SE13      29.85F HX  99
HAYS           SUNNY     93  70  46 S15       29.85F HX  99
LIBERAL        SUNNY     97  64  34 SE18      29.85F HX  99
GOODLAND       CLOUDY    72  61  68 NW21G40   29.95R THUNDER
$$



USA.gov is the U.S. government's official web portal to all federal, state and local government web resources and services.